| time (UTC) | temp C | wind direction | speed KPH | gust KPH | rain 1hr cm | rain 24hr cm | rain mn cm | humidity % | barometer mb |
| 20260903130502 | 26 | 9.7 | 0.0 | 0.00 | 0.00 | 0.00 | 39 | 1017.0 | |
| 20260903123502 | 26 | 350 | 11.3 | 0.0 | 0.00 | 0.00 | 0.00 | 39 | 1017.0 |
| 20260903120502 | 26 | 330 | 12.9 | 0.0 | 0.00 | 0.00 | 0.00 | 39 | 1018.0 |
| 20260903113502 | 25 | 320 | 12.9 | 0.0 | 0.00 | 0.00 | 0.00 | 42 | 1018.0 |
| 20260903110502 | 25 | 9.7 | 0.0 | 0.00 | 0.00 | 0.00 | 44 | 1018.0 | |
| 20260903103503 | 23 | 320 | 11.3 | 0.0 | 0.00 | 0.00 | 0.00 | 47 | 1019.0 |
| 20260903100503 | 25 | 290 | 11.3 | 0.0 | 0.00 | 0.00 | 0.00 | 44 | 1019.0 |
| 20260903093502 | 23 | 330 | 12.9 | 0.0 | 0.00 | 0.00 | 0.00 | 47 | 1019.0 |
| 20260903090502 | 23 | 320 | 11.3 | 0.0 | 0.00 | 0.00 | 0.00 | 50 | 1019.0 |
| 20260903083502 | 22 | 3.2 | 0.0 | 0.00 | 0.00 | 0.00 | 53 | 1020.0 | |
| 20260903080503 | 22 | 360 | 8.0 | 0.0 | 0.00 | 0.00 | 0.00 | 50 | 1020.0 |
| 20260903073502 | 22 | 9.7 | 0.0 | 0.00 | 0.00 | 0.00 | 53 | 1020.0 | |
| 20260903070502 | 21 | 310 | 11.3 | 0.0 | 0.00 | 0.00 | 0.00 | 64 | 1020.0 |
| 20260903063503 | 20 | 290 | 8.0 | 0.0 | 0.00 | 0.00 | 0.00 | 69 | 1019.0 |
| 20260903060502 | 17 | 250 | 4.8 | 0.0 | 0.00 | 0.00 | 0.00 | 78 | 1020.0 |
| 20260903053502 | 17 | 3.2 | 0.0 | 0.00 | 0.00 | 0.00 | 83 | 1020.0 | |
| 20260903050503 | 17 | 270 | 4.8 | 0.0 | 0.00 | 0.00 | 0.00 | 83 | 1020.0 |
| 20260903043502 | 17 | 200 | 4.8 | 0.0 | 0.00 | 0.00 | 0.00 | 73 | 1019.0 |
| 20260903040502 | 16 | 310 | 12.9 | 0.0 | 0.00 | 0.00 | 0.00 | 83 | 1019.0 |
| 20260903033502 | 17 | 320 | 14.5 | 0.0 | 0.00 | 0.00 | 0.00 | 77 | 1019.0 |
| 20260903030502 | 17 | 250 | 8.0 | 0.0 | 0.00 | 0.00 | 0.00 | 77 | 1019.0 |
| 20260903023502 | 17 | 340 | 12.9 | 0.0 | 0.00 | 0.00 | 0.00 | 73 | 1019.0 |
| 20260903020501 | 17 | 3.2 | 0.0 | 0.00 | 0.00 | 0.00 | 73 | 1019.0 | |
| 20260903013503 | 18 | 20 | 12.9 | 0.0 | 0.00 | 0.00 | 0.00 | 64 | 1019.0 |
| 20260903010502 | 18 | 20 | 12.9 | 0.0 | 0.00 | 0.00 | 0.00 | 64 | 1019.0 |
| 20260903003502 | 18 | 340 | 16.1 | 0.0 | 0.00 | 0.00 | 0.00 | 68 | 1019.0 |
| 20260903000502 | 17 | 270 | 4.8 | 0.0 | 0.00 | 0.00 | 0.00 | 78 | 1019.0 |
| 20260902233501 | 17 | 260 | 8.0 | 0.0 | 0.00 | 0.00 | 0.00 | 78 | 1019.0 |
| 20260902230501 | 17 | 310 | 9.7 | 0.0 | 0.00 | 0.00 | 0.00 | 73 | 1019.0 |
| 20260902223502 | 18 | 290 | 4.8 | 0.0 | 0.00 | 0.00 | 0.00 | 73 | 1019.0 |
| 20260902220502 | 18 | 300 | 4.8 | 0.0 | 0.00 | 0.00 | 0.00 | 73 | 1019.0 |
| 20260902213502 | 20 | 330 | 4.8 | 0.0 | 0.00 | 0.00 | 0.00 | 64 | 1019.0 |
| 20260902210502 | 18 | 270 | 4.8 | 0.0 | 0.00 | 0.00 | 0.00 | 78 | 1019.0 |
| 20260902203502 | 21 | 320 | 4.8 | 0.0 | 0.00 | 0.00 | 0.00 | 64 | 1019.0 |
| 20260902200502 | 21 | 320 | 4.8 | 0.0 | 0.00 | 0.00 | 0.00 | 64 | 1019.0 |
| 20260902193502 | 21 | 290 | 4.8 | 0.0 | 0.00 | 0.00 | 0.00 | 69 | 1019.0 |
| 20260902190502 | 21 | 350 | 4.8 | 0.0 | 0.00 | 0.00 | 0.00 | 69 | 1019.0 |
| 20260902183502 | 21 | 280 | 3.2 | 0.0 | 0.00 | 0.00 | 0.00 | 69 | 1019.0 |
| 20260902180502 | 22 | 3.2 | 0.0 | 0.00 | 0.00 | 0.00 | 61 | 1019.0 | |
| 20260902173502 | 22 | 310 | 4.8 | 0.0 | 0.00 | 0.00 | 0.00 | 57 | 1018.0 |
| 20260902170502 | 23 | 310 | 4.8 | 0.0 | 0.00 | 0.00 | 0.00 | 54 | 1018.0 |
| 20260902163502 | 23 | 310 | 8.0 | 0.0 | 0.00 | 0.00 | 0.00 | 57 | 1018.0 |
| 20260902160503 | 23 | 310 | 8.0 | 0.0 | 0.00 | 0.00 | 0.00 | 57 | 1018.0 |
| 20260902153503 | 25 | 320 | 8.0 | 0.0 | 0.00 | 0.00 | 0.00 | 51 | 1018.0 |
| 20260902150502 | 26 | 4.8 | 0.0 | 0.00 | 0.00 | 0.00 | 48 | 1018.0 | |
| 20260902143502 | 26 | 4.8 | 0.0 | 0.00 | 0.00 | 0.00 | 48 | 1018.0 | |
| 20260902140502 | 25 | 3.2 | 0.0 | 0.00 | 0.00 | 0.00 | 51 | 1019.0 | |
| 20260902133501 | 25 | 290 | 8.0 | 0.0 | 0.00 | 0.00 | 0.00 | 51 | 1019.0 |